Voltar ao catálogo

APOLLO 16 LM

ORION

unknownCiênciaPO
NORAD 6005·PAYLOAD·🇺🇸 United States

Lançado Apr 16, 1972 de Cape Canaveral Space Force Station

Loading…

Próximas Passagens (próximas 24 horas)

TLE

ObsoletoSource: Space-Track

Época: Sep 22, 1991, 20:33 UTC

1 06005U 72031  C 91265.85668056  .00005957 +00000-0 +56553-2 0  9993
2 06005 082.8065 223.9633 0066940 318.4968 041.1117 13.79739069326239

Acompanhe APOLLO 16 LM em tempo real com AllMySat

Download on the App Store